New Bern, NC

3:27 AM EDT on July 26, 2017 (GMT -0400)
Craven County Regional

Weather History for KEWN - December, 2013

Change the Weather History Date:

Monday, December 2, 2013

  Actual Average Record
Temperature  
Mean Temperature 48 °F 53 °F  
Max Temperature 57 °F 64 °F 81 °F (1991)
Min Temperature 39 °F 42 °F 20 °F (1965)
Degree Days  
Heating Degree Days 17 13  
Month to date heating degree days 32 229  
Since 1 July heating degree days 455 346  
Cooling Degree Days 0 0  
Month to date cooling degree days 0 14  
Year to date cooling degree days 2006 1899  
Moisture  
Dew Point 42 °F    
Average Humidity 81    
Maximum Humidity 100    
Minimum Humidity 61    
Precipitation  
Precipitation 0.00 in 0.12 in 1.26 in (2009)
Month to date precipitation 0.00 2.70  
Year to date precipitation 40.28 48.65  
Snow  
Snow 0.00 in - - ()
Month to date snowfall 0.0  
Since 1 July snowfall T  
Snow Depth 0.00 in    
Sea Level Pressure  
Sea Level Pressure 29.93 in    
Wind  
Wind Speed 2 mph (NNE)    
Max Wind Speed 9 mph    
Max Gust Speed 12 mph    
Visibility 5 miles    
Events Fog    
T = Trace of Precipitation, MM = Missing Value Source: NWS Daily Summary

Daily Weather History Graph

Daily Weather History Graph

Search for Another Location

Airport or City:

Trip Planner

Search our weather history database for the weather conditions in past years. The results will help you decide how hot, cold, wet, or windy it might be!

Date:

Astronomy

Dec. 02, 2013 Rise Set
Actual Time 6:59 AM EST 4:56 PM EST
Civil Twilight 6:31 AM EST 5:24 PM EST
Nautical Twilight 5:59 AM EST 5:55 PM EST
Astronomical Twilight 5:29 AM EST 6:26 PM EST
Moon 6:23 AM EST (12/2) 4:56 PM EST (12/2)
Length of Visible Light 10h 52m
Length of Day
9h 57m
Waning Crescent, 0% of the Moon is Illuminated
Dec 2
Waning Crescent
Dec 2
New
Dec 9
First Quarter
Dec 17
Full
Dec 25
Last Quarter

Hourly Weather History & Observations

Time (EST) Temp. Windchill Dew Point Humidity Pressure Visibility Wind Dir Wind Speed Gust Speed Precip Events Conditions
12:11 AM 44.6 °F - 42.8 °F 93% 30.02 in 0.2 mi Calm Calm - N/A Fog Fog
12:32 AM 42.8 °F - 41.0 °F 93% 30.02 in 0.2 mi Calm Calm - N/A Fog Fog
12:54 AM 43.0 °F - 41.0 °F 93% 30.01 in 0.2 mi Calm Calm - N/A Fog Fog
1:22 AM 44.6 °F - 42.8 °F 93% 30.01 in 0.5 mi Calm Calm - N/A Fog Fog
1:30 AM 44.6 °F - 42.8 °F 93% 30.01 in 0.8 mi Calm Calm - N/A   Overcast
1:41 AM 44.6 °F - 42.8 °F 93% 30.01 in 0.5 mi Calm Calm - N/A Fog Fog
1:47 AM 44.6 °F - 42.8 °F 93% 30.01 in 1.0 mi Calm Calm - N/A   Overcast
1:52 AM 44.6 °F - 44.6 °F 100% 30.00 in 3.0 mi Calm Calm - N/A   Overcast
1:54 AM 45.0 °F 43.5 °F 44.1 °F 97% 30.00 in 4.0 mi SE 3.5 mph - N/A   Overcast
2:20 AM 46.4 °F 42.9 °F 44.6 °F 93% 29.98 in 2.0 mi North 6.9 mph - N/A   Overcast
2:27 AM 46.4 °F 45.2 °F 46.4 °F 100% 29.98 in 1.0 mi North 3.5 mph - N/A   Overcast
2:43 AM 46.4 °F - 46.4 °F 100% 29.98 in 2.0 mi Calm Calm - N/A   Overcast
2:51 AM 46.4 °F - 46.4 °F 100% 29.98 in 1.8 mi Calm Calm - N/A   Overcast
2:54 AM 46.9 °F - 46.0 °F 97% 29.98 in 2.0 mi Calm Calm - N/A   Overcast
3:01 AM 48.2 °F - 46.4 °F 93% 29.98 in 3.0 mi NNE 3.5 mph - N/A   Overcast
3:54 AM 46.0 °F - 45.0 °F 96% 29.96 in 4.0 mi Calm Calm - N/A   Overcast
4:54 AM 46.9 °F - 45.0 °F 93% 29.96 in 6.0 mi Calm Calm - N/A   Overcast
5:54 AM 46.9 °F - 45.0 °F 93% 29.96 in 5.0 mi Calm Calm - N/A   Overcast
6:54 AM 46.0 °F 44.8 °F 44.1 °F 93% 29.95 in 3.0 mi North 3.5 mph - N/A   Overcast
7:54 AM 48.0 °F - 45.0 °F 89% 29.95 in 6.0 mi Calm Calm - N/A   Overcast
8:54 AM 48.9 °F - 45.0 °F 86% 29.94 in 8.0 mi Calm Calm - N/A   Overcast
9:54 AM 51.1 °F - 44.1 °F 77% 29.94 in 10.0 mi NE 3.5 mph - N/A   Mostly Cloudy
10:54 AM 53.1 °F - 44.1 °F 71% 29.92 in 10.0 mi Calm Calm - N/A   Mostly Cloudy
11:54 AM 55.0 °F - 42.1 °F 62% 29.89 in 10.0 mi ENE 4.6 mph - N/A   Scattered Clouds
12:54 PM 55.9 °F - 43.0 °F 62% 29.85 in 10.0 mi ENE 5.8 mph - N/A   Overcast
1:54 PM 55.9 °F - 44.1 °F 64% 29.83 in 10.0 mi North 3.5 mph - N/A   Overcast
2:54 PM 55.0 °F - 43.0 °F 64% 29.83 in 10.0 mi North 6.9 mph - N/A   Overcast
3:54 PM 54.0 °F - 43.0 °F 66% 29.84 in 10.0 mi NNW 4.6 mph - N/A   Overcast
4:54 PM 53.1 °F - 43.0 °F 69% 29.84 in 10.0 mi Calm Calm - N/A   Mostly Cloudy
5:54 PM 48.0 °F - 43.0 °F 83% 29.84 in 10.0 mi Calm Calm - N/A   Scattered Clouds
6:54 PM 46.0 °F - 43.0 °F 89% 29.85 in 10.0 mi Calm Calm - N/A   Clear
7:54 PM 44.1 °F - 41.0 °F 89% 29.87 in 9.0 mi Calm Calm - N/A   Clear
8:54 PM 43.0 °F - 39.9 °F 89% 29.88 in 8.0 mi Calm Calm - N/A   Scattered Clouds
9:54 PM 42.1 °F - 39.0 °F 89% 29.88 in 7.0 mi Calm Calm - N/A   Clear
10:09 PM 42.8 °F - 39.2 °F 87% 29.88 in 2.5 mi Calm Calm - N/A   Clear
10:17 PM 42.8 °F - 39.2 °F 87% 29.88 in 8.0 mi Calm Calm - N/A   Clear
10:46 PM 39.2 °F - 35.6 °F 87% 29.88 in 1.8 mi Calm Calm - N/A   Clear
10:54 PM 39.0 °F - 36.0 °F 89% 29.88 in 0.8 mi Calm Calm - N/A   Clear
11:04 PM 39.2 °F - 37.4 °F 93% 29.88 in 2.0 mi Calm Calm - N/A   Clear
11:10 PM 39.2 °F - 37.4 °F 93% 29.88 in 0.8 mi Calm Calm - N/A   Clear
11:21 PM 39.2 °F - 37.4 °F 93% 29.88 in 2.5 mi Calm Calm - N/A   Clear
11:28 PM 39.2 °F - 37.4 °F 93% 29.88 in 8.0 mi Calm Calm - N/A   Clear
11:54 PM 39.0 °F - 37.0 °F 93% 29.88 in 5.0 mi Calm Calm - N/A   Clear